Location: Wildcat Hills Observatory
(41.6350°N, 103.6812°W)
Time: 16:09:46
(UTC-06:00)

Cosmos 1634 Rocket - Visible Passes

Search period start: 06 July 2015 00:00
Search period end: 16 July 2015 00:00
Orbit: 961 x 991 km, 82.9° (Epoch: 06 July)

Date Brightness Start Highest point End Pass type
(mag) Time Alt. Az. Time Alt. Az. Time Alt. Az.
06 Jul 3.9 00:47:52 61° S 00:49:05 90° WSW 00:55:25 10° N visible
06 Jul 6.1 02:32:32 11° W 02:35:35 14° WNW 02:38:32 10° NW visible
06 Jul 5.3 23:28:34 23° E 23:29:42 24° E 23:34:40 10° NNE visible
07 Jul 4.5 01:13:15 42° WSW 01:14:46 51° WNW 01:20:53 10° N visible
07 Jul 4.5 23:53:56 40° ESE 23:55:02 44° E 00:00:58 10° NNE visible
08 Jul 5.3 01:38:36 24° WSW 01:40:40 29° WNW 01:46:00 10° NNW visible
08 Jul 6.0 22:34:57 10° E 22:36:02 11° E 22:37:35 10° ENE visible
09 Jul 3.9 00:19:17 59° SSE 00:20:30 79° E 00:26:50 10° N visible
09 Jul 6.0 02:03:57 13° W 02:06:49 16° WNW 02:10:29 10° NNW visible
09 Jul 5.4 22:59:57 20° E 23:01:12 21° E 23:05:49 10° NE visible
10 Jul 4.3 00:44:37 47° SW 00:46:09 59° W 00:52:23 10° N visible
10 Jul 4.7 23:25:17 34° ESE 23:26:30 38° E 23:32:17 10° NNE visible
11 Jul 5.2 01:09:57 27° WSW 01:12:00 33° WNW 01:17:35 10° N visible
11 Jul 4.0 23:50:35 53° SSE 23:51:57 69° E 23:58:14 10° NNE visible
12 Jul 5.9 01:35:15 15° W 01:38:05 19° WNW 01:42:17 10° NNW visible
12 Jul 5.5 22:31:13 16° E 22:32:42 18° E 22:36:55 10° NE visible
13 Jul 4.1 00:15:53 49° SW 00:17:32 68° W 00:23:51 10° N visible
13 Jul 4.8 22:56:30 29° ESE 22:57:59 33° E 23:03:34 10° NNE visible
14 Jul 5.0 00:41:10 30° WSW 00:43:20 38° WNW 00:49:09 10° N visible
14 Jul 4.1 23:21:45 45° SE 23:23:23 60° E 23:29:37 10° NNE visible
15 Jul 5.8 01:06:25 16° WSW 01:09:22 22° WNW 01:14:00 10° NNW visible
15 Jul 5.7 22:02:21 13° ESE 22:04:14 16° E 22:07:53 10° NE visible
15 Jul 4.0 23:47:00 47° SSW 23:48:57 78° W 23:55:18 10° N visible
